1129 visiteurs
Prévisions de votre ville :
Vigilance : 59 départements Mise à jour le 08/12/2019 à 06:15 - Voir la carte

Paris Roissy CDG (95380) le 08/12/2019 à 07:00 Choisir station

10.6°C 79 % SO Rafales 24 km/h
Vit. moyenne 15 kmh/h

Relevés météo quotidiens pour la station de :

UTC
S: Synop
M: Metar
Loc T°C
(°C)
Td
(°C)
HR
(%)
Vis
(km)
Néb
(octa)
Vent
(km/h)
Pression
(mb)
Précipitations
(mm)
Temps
              MOY
10 min
DIR RAF 1h MESURE VAR SUR 3h    
S 00 h 02h 20.0 16.6 81 30 - 2 6 1020.2 +0.6/3h 0.0/6h - 0.0/3h -
S 01 h 03h 20.1 16.7 81 27 - 6 9 1020.1 +0.4/3h 0.0/1h -
S 02 h 04h 20.1 15.7 76 35 - 2 11 1019.9 -0.1/3h 0.0/1h -
S 03 h 05h 17.4 14.7 84 30 - - - 6 1019.8 -0.5/3h 0.0/3h -
S 04 h 06h 18.2 15.1 82 45 - 6 9 1020.1 -0.1/3h 0.0/1h -
S 05 h 07h 17.6 14.9 84 30 - - - 4 1020.3 +0.3/3h 0.0/1h -
S 06 h 08h 19.6 15.5 77 19 - 4 7 1020.1 +0.4/3h 0.0/12h - 0.0/3h - 0.0/24h -
S 07 h 09h 22.8 15.9 65 35 - 2 7 1020.0 +0.1/3h 0.0/1h -
S 08 h 10h 24.6 16.3 60 35 - 2 17 1020.1 0.0/3h 0.0/1h -
S 09 h 11h 29.6 15.0 41 18 - 4 9 1019.6 -0.2/3h 0.0/3h -
S 10 h 12h 32.6 13.3 31 35 - 6 11 1019.0 -0.7/3h 0.0/1h -
S 11 h 13h 34.5 13.3 28 35 - 6 28 1018.8 -1.0/3h 0.0/1h -
S 12 h 14h 35.9 12.8 25 50 - 9 24 1018.3 -1.1/3h 0.0/6h - 0.0/3h -
S 13 h 15h 35.7 13.8 27 50 - 19 33 1017.7 -1.2/3h 0.0/1h -
S 14 h 16h 35.3 14.6 29 29 - 17 35 1017.6 -1.1/3h 0.0/1h -
S 15 h 17h 35.4 14.7 29 30 - 7 15 1017.6 -0.7/3h 0.0/3h -
S 16 h 18h 34.5 14.9 31 40 - 7 15 1017.5 -0.3/3h 0.0/1h -
S 17 h 19h 31.3 19.0 48 35 - 15 24 1018.0 +0.3/3h 0.0/1h -
S 18 h 20h 28.7 19.1 56 35 - 15 22 1018.3 +0.5/3h 0.0/12h - 0.0/3h -
S 19 h 21h 26.7 19.3 64 40 - 9 20 1019.3 +1.6/3h 0.0/1h -
S 20 h 22h 25.8 19.2 67 50 - 7 15 1020.1 +1.9/3h 0.0/1h -
S 21 h 23h 25.1 19.0 69 45 - 6 11 1020.5 +2.1/3h 0.0/3h -
S 22 h 00h 24.4 18.8 71 35 - 4 6 1020.7 +1.3/3h 0.0/1h -
S 23 h 01h 23.1 18.2 74 27 - 4 4 1020.9 +0.7/3h 0.0/1h -
evolution des temperatures
cumul des precipitations
vent moyen et rafales
pression atmospherique

Un tiret (-) signifie que les données ne sont pas disponibles.

Passez la souris sur les pictos temps pour avoir plus de précisions. Passez les flèches sur l'icône de la direction du vent pour voir la direction précise en degrés.

Les données de l'heure en cours sont disponibles à partir de H+15 minutes.


S signifie station Synop, plus complète qu'une station Metar (M). Il y a +1h de différence entre l'heure UTC et l'heure légale en hiver et +2h en été.

Td est la mesure du point de rosée.

HR est l'humidité relative/p>

Vis est la visibilité

Néb est la nébulosité du ciel (couverture nuageuse) exprimée en octas (de 0/8 à 8/8).

Vent moy 10 min donne le vent moyen sur les 10 minutes qui précèdent le relevé.

Vent raf 1h donne la rafale maximale mesurée dans l'heure qui précède le relevé.


Les données les plus anciennes remontent à avril 2014.

Les données présentées sur cette page proviennent des stations météo officielles. Les relevés sont effectués aux normes en vigueur (anémomètre à 10m de haut, thermomètre sous abri normalisé à 2m du sol...)

Météo 60 décline toute responsabilité en cas d'absence de données, d'erreurs, de mauvaise utilisation ou interprétation et n'est pas habilité à fournir des certificats intempéries.